Regional Weather Roundup
Issued by NWS Albany, NY

Current Version |  Previous Version |  Text Only |  Print | Product List |  Glossary On
Versions: 1 2 3 4 5 6 7 8 9 10 11 12 13 14 15 16 17 18 19 20 21 22 23 24 25 26 27
752
ASUS41 KALY 240510
RWRALY

NEW YORK STATE HOURLY WEATHER ROUNDUP
NATIONAL WEATHER SERVICE ALBANY NY
100 AM EDT WED JUL 24 2024

NOTE: "FAIR" INDICATES FEW OR NO CLOUDS BELOW 12,000 FEET WITH NO
SIGNIFICANT WEATHER AND/OR NO OBSTRUCTIONS TO VISIBILITY.

NYZ032-033-038>043-046>054-057>066-NYZ062>081-082-084-240600-
EAST


CITY           SKY/WX    TMP DP  RH WIND       PRES   REMARKS
ALBANY         CLOUDY    70  67  90 N3        30.13S
GLENS FALLS    PTCLDY    64  64 100 NW3       30.13R FOG
POUGHKEEPSIE   MOCLDY    69  67  93 CALM      30.11F
NEWBURGH       MOCLDY    70  70 100 CALM      30.13S
MONTGOMERY     MOCLDY    67  66  97 CALM      30.12F
WHITE PLAINS   CLOUDY    71  70  96 E5        30.13S
ISLIP          CLOUDY    73  72  96 E6        30.11S FOG
NEW YORK CITY  CLOUDY    73  70  90 E7        30.11R
CENTRAL PARK   CLOUDY    74  70  87 MISG      30.14R
$$

NYZ005>009-017-018-044>046-055-056-240600-
CENTRAL


CITY           SKY/WX    TMP DP  RH WIND       PRES   REMARKS
FULTON         CLOUDY    68  66  93 CALM      30.08F
SYRACUSE       MOCLDY    71  66  84 E6        30.08F
ROME           MOCLDY    67  64  90 E5        30.11S
ELMIRA         MOCLDY    68  65  90 CALM      30.10S
BINGHAMTON     MOCLDY    67  65  93 SE3       30.14S
$$

NYZ026>034-041>043-087-240600-
NORTH


CITY           SKY/WX    TMP DP  RH WIND       PRES   REMARKS
WATERTOWN      PTCLDY    65  63  93 CALM      30.08S
FORT DRUM      CLEAR     68  65  91 SE8       30.06S
OGDENSBURG     PTCLDY    63  63 100 CALM      30.07S
MASSENA        PTCLDY    61  60  97 CALM      30.11S
SARANAC LAKE   PTCLDY    58  56  93 CALM      30.15S FOG
PLATTSBURGH      N/A    N/A N/A N/A MISG      30.10F
$$

NYZ001>004-010>016-019>021-085-240600-
WEST


CITY           SKY/WX    TMP DP  RH WIND       PRES   REMARKS
NIAGARA FALLS  CLOUDY    72  65  78 E5        30.04F
BUFFALO        MOCLDY    72  64  76 S7        30.05F
DUNKIRK        LGT RAIN  76  63  64 W9        30.05F
JAMESTOWN      RAIN      66  66 100 SW8       30.13R
WELLSVILLE     MOCLDY    65  63  93 SE3       30.15F
ROCHESTER      CLOUDY    71  65  81 S5        30.07F
PENN YAN       MOCLDY    69  65  86 S6        30.10F
$$

             KEY
       WCI = WIND CHILL INDEX
       VSB = VISIBILITY
       HX  = HEAT INDEX
$$